Location: Drocourt
(49.0571°N, 1.7669°E)
Time: 13:01:20
(UTC+00:00)

SR - Pass Details

Date: 21 April 2024
Orbit: 579 x 859 km, 66.7° (Epoch: 28 May)

Event Time Altitude Azimuth Distance (km) Brightness Sun altitude
Rises 04:01:44 0° 272° (W) 3,268 - -8.0°
Exits shadow 04:02:51 - 278° (W) 2,914 ? -7.8°
Reaches altitude 10° 04:05:06 10° 293° (WNW) 2,285 ? -7.5°
Maximum altitude 04:08:23 17° 332° (NNW) 1,814 ? -7.0°
Drops below altitude 10° 04:11:33 10° 12° (NNE) 2,169 ? -6.5°
Sets 04:14:38 0° 34° (NE) 3,027 ? -6.1°
